Hourly Weather Kitaevo

Today, 24 October, Saturday

Time Temperature Precipitation Wind Pressure Humidity
00:00 +10°C° 0.2 mm 6 mps 742 mmHg 88%
01:00 +10°C° 0 mm 6 mps 742 mmHg 89%
02:00 +9°C° 0 mm 5 mps 742 mmHg 90%
03:00 +9°C° 0 mm 5 mps 742 mmHg 92%
04:00 +9°C° 0 mm 5 mps 742 mmHg 92%
05:00 +8°C° 0 mm 5 mps 743 mmHg 92%
06:00 +8°C° 0 mm 5 mps 743 mmHg 92%
07:00 +8°C° 0 mm 5 mps 743 mmHg 90%
08:00 +8°C° 0 mm 5 mps 744 mmHg 89%
09:00 +8°C° 0 mm 5 mps 744 mmHg 87%
10:00 +9°C° 0 mm 5 mps 744 mmHg 83%
11:00 +9°C° 0 mm 5 mps 744 mmHg 78%
12:00 +9°C° 0 mm 5 mps 744 mmHg 73%
13:00 +11°C° 0 mm 4 mps 745 mmHg 72%
14:00 +11°C° 0 mm 4 mps 745 mmHg 71%
15:00 +11°C° 0 mm 3 mps 745 mmHg 70%
16:00 +10°C° 0 mm 3 mps 745 mmHg 75%
17:00 +9°C° 0 mm 3 mps 745 mmHg 81%
18:00 +9°C° 0 mm 2 mps 745 mmHg 87%
19:00 +9°C° 0 mm 2 mps 745 mmHg 87%
20:00 +8°C° 0 mm 2 mps 745 mmHg 88%
21:00 +8°C° 0 mm 2 mps 745 mmHg 89%
22:00 +8°C° 0.6 mm 2 mps 744 mmHg 90%
23:00 +8°C° 0.6 mm 2 mps 744 mmHg 92%

Tomorrow, 25 October, Sunday

Time Temperature Precipitation Wind Pressure Humidity
00:00 +8°C° 0.6 mm 2 mps 744 mmHg 94%
01:00 +8°C° 1.3 mm 2 mps 744 mmHg 95%
02:00 +9°C° 1.3 mm 1 mps 744 mmHg 96%
03:00 +9°C° 1.3 mm 1 mps 744 mmHg 97%
04:00 +9°C° 0.3 mm 1 mps 744 mmHg 96%
05:00 +8°C° 0.3 mm 2 mps 744 mmHg 96%
06:00 +8°C° 0.3 mm 2 mps 744 mmHg 95%
07:00 +8°C° 0 mm 3 mps 744 mmHg 93%
08:00 +8°C° 0 mm 3 mps 745 mmHg 91%
09:00 +8°C° 0 mm 4 mps 745 mmHg 89%
10:00 +8°C° 0.1 mm 4 mps 746 mmHg 86%
11:00 +8°C° 0.1 mm 4 mps 746 mmHg 83%
12:00 +8°C° 0.1 mm 4 mps 747 mmHg 80%
13:00 +8°C° 0 mm 4 mps 747 mmHg 81%
14:00 +8°C° 0 mm 4 mps 747 mmHg 82%
15:00 +8°C° 0 mm 4 mps 747 mmHg 83%
16:00 +8°C° 0 mm 3 mps 748 mmHg 86%
17:00 +8°C° 0 mm 3 mps 748 mmHg 88%
18:00 +7°C° 0 mm 2 mps 748 mmHg 91%
19:00 +7°C° 0 mm 3 mps 749 mmHg 91%
20:00 +7°C° 0 mm 3 mps 749 mmHg 91%
21:00 +7°C° 0 mm 3 mps 750 mmHg 91%
22:00 +7°C° 0 mm 3 mps 750 mmHg 89%
23:00 +7°C° 0 mm 3 mps 750 mmHg 88%

Day after tomorrow, 26 October, Monday

Time Temperature Precipitation Wind Pressure Humidity
00:00 +7°C° 0 mm 3 mps 751 mmHg 86%
01:00 +7°C° 0 mm 3 mps 751 mmHg 87%
02:00 +7°C° 0 mm 3 mps 751 mmHg 87%
03:00 +7°C° 0 mm 3 mps 752 mmHg 88%
04:00 +6°C° 0 mm 2 mps 752 mmHg 90%
05:00 +6°C° 0 mm 2 mps 752 mmHg 92%
06:00 +5°C° 0 mm 2 mps 753 mmHg 95%
07:00 +5°C° 0 mm 2 mps 753 mmHg 94%
08:00 +6°C° 0 mm 2 mps 753 mmHg 93%
09:00 +6°C° 0 mm 2 mps 754 mmHg 92%
10:00 +7°C° 0 mm 2 mps 754 mmHg 88%
11:00 +8°C° 0 mm 2 mps 754 mmHg 83%
12:00 +9°C° 0 mm 2 mps 755 mmHg 78%
13:00 +9°C° 0 mm 2 mps 755 mmHg 77%
14:00 +9°C° 0 mm 2 mps 755 mmHg 76%
15:00 +9°C° 0 mm 2 mps 755 mmHg 74%
16:00 +9°C° 0 mm 2 mps 756 mmHg 76%
17:00 +8°C° 0 mm 2 mps 756 mmHg 78%
18:00 +8°C° 0 mm 2 mps 756 mmHg 79%
19:00 +7°C° 0 mm 2 mps 756 mmHg 81%
20:00 +7°C° 0 mm 2 mps 757 mmHg 83%
21:00 +6°C° 0 mm 2 mps 757 mmHg 85%
22:00 +5°C° 0 mm 2 mps 757 mmHg 86%
23:00 +5°C° 0 mm 2 mps 758 mmHg 86%

, 27 October, Tuesday

Time Temperature Precipitation Wind Pressure Humidity
00:00 +4°C° 0 mm 2 mps 758 mmHg 87%
01:00 +4°C° 0 mm 2 mps 758 mmHg 88%
02:00 +3°C° 0 mm 2 mps 758 mmHg 88%
03:00 +3°C° 0 mm 2 mps 758 mmHg 89%
04:00 +3°C° 0 mm 2 mps 758 mmHg 89%
05:00 +2°C° 0 mm 2 mps 759 mmHg 90%
06:00 +2°C° 0 mm 2 mps 759 mmHg 90%
07:00 +2°C° 0 mm 3 mps 759 mmHg 89%
08:00 +2°C° 0 mm 3 mps 759 mmHg 87%
09:00 +3°C° 0 mm 3 mps 759 mmHg 86%
10:00 +4°C° 0 mm 3 mps 759 mmHg 83%
11:00 +4°C° 0 mm 3 mps 759 mmHg 80%
12:00 +5°C° 0 mm 3 mps 759 mmHg 78%
13:00 +7°C° 0 mm 3 mps 759 mmHg 77%
14:00 +7°C° 0 mm 3 mps 759 mmHg 76%
15:00 +8°C° 0 mm 3 mps 759 mmHg 76%
16:00 +7°C° 0 mm 3 mps 759 mmHg 79%
17:00 +5°C° 0 mm 3 mps 759 mmHg 82%
18:00 +4°C° 0 mm 3 mps 759 mmHg 85%
19:00 +4°C° 0 mm 3 mps 759 mmHg 85%
20:00 +4°C° 0 mm 3 mps 759 mmHg 85%
21:00 +3°C° 0 mm 3 mps 759 mmHg 86%
22:00 +3°C° 0 mm 3 mps 759 mmHg 85%
23:00 +3°C° 0 mm 3 mps 759 mmHg 84%

27 October, Tuesday

Time Temperature Precipitation Wind Pressure Humidity
00:00 +4°C° 0 mm 2 mps 758 mmHg 87%
01:00 +4°C° 0 mm 2 mps 758 mmHg 88%
02:00 +3°C° 0 mm 2 mps 758 mmHg 88%
03:00 +3°C° 0 mm 2 mps 758 mmHg 89%
04:00 +3°C° 0 mm 2 mps 758 mmHg 89%
05:00 +2°C° 0 mm 2 mps 759 mmHg 90%
06:00 +2°C° 0 mm 2 mps 759 mmHg 90%
07:00 +2°C° 0 mm 3 mps 759 mmHg 89%
08:00 +2°C° 0 mm 3 mps 759 mmHg 87%
09:00 +3°C° 0 mm 3 mps 759 mmHg 86%
10:00 +4°C° 0 mm 3 mps 759 mmHg 83%
11:00 +4°C° 0 mm 3 mps 759 mmHg 80%
12:00 +5°C° 0 mm 3 mps 759 mmHg 78%
13:00 +7°C° 0 mm 3 mps 759 mmHg 77%
14:00 +7°C° 0 mm 3 mps 759 mmHg 76%
15:00 +8°C° 0 mm 3 mps 759 mmHg 76%
16:00 +7°C° 0 mm 3 mps 759 mmHg 79%
17:00 +5°C° 0 mm 3 mps 759 mmHg 82%
18:00 +4°C° 0 mm 3 mps 759 mmHg 85%
19:00 +4°C° 0 mm 3 mps 759 mmHg 85%
20:00 +4°C° 0 mm 3 mps 759 mmHg 85%
21:00 +3°C° 0 mm 3 mps 759 mmHg 86%
22:00 +3°C° 0 mm 3 mps 759 mmHg 85%
23:00 +3°C° 0 mm 3 mps 759 mmHg 84%

28 October, Wednesday

Time Temperature Precipitation Wind Pressure Humidity
00:00 +3°C° 0 mm 4 mps 759 mmHg 83%
01:00 +3°C° 0 mm 3 mps 759 mmHg 83%
02:00 +2°C° 0 mm 3 mps 759 mmHg 83%
03:00 +2°C° 0 mm 3 mps 759 mmHg 83%
04:00 +2°C° 0 mm 3 mps 759 mmHg 82%
05:00 +2°C° 0 mm 3 mps 759 mmHg 81%
06:00 +2°C° 0 mm 3 mps 759 mmHg 80%
07:00 +1°C° 0 mm 4 mps 759 mmHg 77%
08:00 +1°C° 0 mm 4 mps 759 mmHg 74%
09:00 +3°C° 0 mm 4 mps 759 mmHg 70%
10:00 +4°C° 0 mm 4 mps 759 mmHg 66%
11:00 +5°C° 0 mm 4 mps 759 mmHg 61%
12:00 +6°C° 0 mm 4 mps 760 mmHg 57%
13:00 +6°C° 0 mm 4 mps 759 mmHg 56%
14:00 +7°C° 0 mm 4 mps 759 mmHg 54%
15:00 +7°C° 0 mm 4 mps 759 mmHg 53%
16:00 +5°C° 0 mm 4 mps 759 mmHg 56%
17:00 +4°C° 0 mm 4 mps 759 mmHg 59%
18:00 +3°C° 0 mm 4 mps 759 mmHg 62%
19:00 +3°C° 0 mm 4 mps 759 mmHg 63%
20:00 +2°C° 0 mm 3 mps 759 mmHg 63%
21:00 +1°C° 0 mm 3 mps 759 mmHg 64%
22:00 +1°C° 0 mm 3 mps 759 mmHg 65%
23:00 +1°C° 0 mm 3 mps 759 mmHg 66%

29 October, Thursday

Time Temperature Precipitation Wind Pressure Humidity
00:00 0°C° 0 mm 3 mps 759 mmHg 67%
01:00 0°C° 0 mm 3 mps 759 mmHg 68%
02:00 0°C° 0 mm 3 mps 759 mmHg 69%
03:00 -1°C° 0 mm 3 mps 758 mmHg 69%
04:00 -1°C° 0 mm 3 mps 758 mmHg 70%
05:00 -1°C° 0 mm 3 mps 758 mmHg 70%
06:00 -1°C° 0 mm 3 mps 758 mmHg 71%
07:00 -1°C° 0 mm 3 mps 758 mmHg 69%
08:00 0°C° 0 mm 3 mps 758 mmHg 67%
09:00 0°C° 0 mm 4 mps 758 mmHg 65%
10:00 +1°C° 0 mm 4 mps 758 mmHg 63%
11:00 +3°C° 0 mm 4 mps 757 mmHg 61%
12:00 +4°C° 0 mm 4 mps 757 mmHg 59%
13:00 +5°C° 0 mm 4 mps 757 mmHg 59%
14:00 +5°C° 0 mm 4 mps 757 mmHg 59%
15:00 +5°C° 0 mm 4 mps 756 mmHg 60%
16:00 +4°C° 0 mm 3 mps 756 mmHg 64%
17:00 +3°C° 0 mm 3 mps 756 mmHg 68%
18:00 +2°C° 0 mm 3 mps 756 mmHg 72%
19:00 +3°C° 0 mm 3 mps 756 mmHg 71%
20:00 +3°C° 0 mm 3 mps 756 mmHg 71%
21:00 +3°C° 0 mm 3 mps 756 mmHg 70%
22:00 +3°C° 0 mm 3 mps 756 mmHg 70%
23:00 +3°C° 0 mm 3 mps 755 mmHg 70%
Show more